Liberia, Costa Rica

1:05 PM CST on January 22, 2017 (GMT -0600)
Daniel Oduber Quiros International

Weather History for MRLB - March, 2013

Change the Weather History Date:

Monday, March 11, 2013

  Actual Average Record
Temperature  
Mean Temperature 82 °F -  
Max Temperature 95 °F 92 °F 97 °F (2016)
Min Temperature 69 °F 75 °F 68 °F (1999)
Cooling Degree Days 17    
Growing Degree Days 32 (Base 50)    
Moisture  
Dew Point 63 °F    
Average Humidity 46    
Maximum Humidity 83    
Minimum Humidity 23    
Precipitation  
Precipitation 0.00 in - - ()
Sea Level Pressure  
Sea Level Pressure 29.78 in    
Wind  
Wind Speed 8 mph ()    
Max Wind Speed 16 mph    
Max Gust Speed -    
Visibility 12.0 miles    
Events      
Averages and records for this station are not official NWS values.
T = Trace of Precipitation, MM = Missing Value Source: Averaged Metar Reports

Daily Weather History Graph

Daily Weather History Graph

Search for Another Location

Airport or City:

Trip Planner

Search our weather history database for the weather conditions in past years. The results will help you decide how hot, cold, wet, or windy it might be!

Date:

Astronomy

Mar. 11, 2013 Rise Set
Actual Time 5:51 AM CST 5:52 PM CST
Civil Twilight 5:30 AM CST 6:13 PM CST
Nautical Twilight 5:05 AM CST 6:38 PM CST
Astronomical Twilight 4:41 AM CST 7:02 PM CST
Moon 5:30 AM CST (3/11) 5:53 PM CST (3/11)
Length of Visible Light 12h 43m
Length of Day
12h 01m
Waning Crescent, 0% of the Moon is Illuminated
Mar 11
Waning Crescent
Mar 11
New
Mar 19
First Quarter
Mar 27
Full
Apr 2
Last Quarter

Hourly Weather History & Observations

Time (CST) Temp. Heat Index Dew Point Humidity Pressure Visibility Wind Dir Wind Speed Gust Speed Precip Events Conditions
6:00 AM 69.8 °F - 64.4 °F 83% 29.82 in - Calm Calm - N/A   Clear
7:00 AM 73.4 °F - 64.4 °F 73% 29.84 in - Calm Calm - N/A   Clear
8:00 AM 78.8 °F - 64.4 °F 61% 29.85 in - Calm Calm - N/A   Clear
9:00 AM 86.0 °F 86.6 °F 62.6 °F 45% 29.85 in - ENE 5.8 mph - N/A   Clear
10:00 AM 91.4 °F 89.4 °F 55.4 °F 29% 29.84 in - East 12.7 mph - N/A   Clear
11:00 AM 93.2 °F 91.9 °F 57.2 °F 30% 29.82 in - East 11.5 mph - N/A   Clear
12:00 PM 93.2 °F 92.6 °F 59.0 °F 32% 29.79 in - East 15.0 mph - N/A   Clear
1:00 PM 93.2 °F 93.3 °F 60.8 °F 34% 29.77 in - East 16.1 mph - N/A   Clear
2:00 PM 95.0 °F 95.2 °F 60.8 °F 32% 29.74 in - ENE 15.0 mph - N/A   Clear
3:00 PM 95 °F - 61 °F 23% 29.73 in 12 mi ENE 13.8 mph - -  
3:00 PM 95.0 °F 95.2 °F 60.8 °F 32% 29.71 in - ENE 13.8 mph - N/A   Clear
4:00 PM 93.2 °F 93.3 °F 60.8 °F 34% 29.70 in - NE 12.7 mph - N/A   Clear
5:00 PM 91.4 °F 92.1 °F 62.6 °F 38% 29.71 in - ENE 13.8 mph - N/A   Clear
6:00 PM 87 °F - 66 °F 40% 29.74 in 12 mi NE 15.0 mph - -  
6:00 PM 87.8 °F 90.4 °F 66.2 °F 49% 29.72 in - NE 15.0 mph - N/A   Clear
7:00 PM 84.2 °F 86.6 °F 66.2 °F 55% 29.75 in - ENE 11.5 mph - N/A   Clear
8:00 PM 82.4 °F 84.6 °F 66.2 °F 58% 29.77 in - ENE 12.7 mph - N/A   Clear
9:00 PM 82.4 °F 85.4 °F 68.0 °F 62% 29.80 in - ENE 15.0 mph - N/A   Clear
10:00 PM 80.6 °F 83.2 °F 68.0 °F 65% 29.82 in - East 12.7 mph - N/A   Clear